Location: Evergreen Manor
(41.4083°N, 81.4939°W)
Time: 12:45:27
(UTC+00:00)

OAO 3 Rocket - Pass Details

Date: 11 December 2019
Orbit: 629 x 683 km, 35.0° (Epoch: 18 January)

Event Time Altitude Azimuth Distance (km) Brightness Sun altitude
Rises 23:58:02 0° 260° (W) 2,925 8.1 -22.0°
Reaches altitude 10° 00:00:30 10° 252° (WSW) 2,024 6.8 -22.5°
Maximum altitude 00:04:50 37° 185° (S) 998 4.2 -23.3°
Enters shadow 00:05:47 34° 158° (SSE) 1,073 4.1 -23.5°
